GLOBALSTAR M093

Last updated on Sun Jun 21 2026 00:03:18 GMT+0000 (Coordinated Universal Time)

1 39073U 13005B 26171.46183245 -.00000105 00000+0 -45766-5 0 9991 2 39073 52.0088 226.7165 0000174 75.0224 285.0662 12.62266004617279
UTC large
Height (km)
Speed (km/s)
/
Latitude / Longitude
Inclination (degrees)
Orbital Period (minutes)
Azimuth
Elevation
Range (km)
Doppler Factor

Next 0 passes for location: London (51.5072 / 0.1276)

No passes found over London.
GLOBALSTAR M093